Skip Page Navigation
NASA JPL Caltech
NASA Logo - Jet Propulsion Laboratory + View the NASA Portal
+ Near-Earth Object (NEO) Program
Search JPL
JPL Home Earth Solar System Stars & Galaxies Technology
JPL Solar System Dynamics
BODIES ORBITS EPHEMERIDES TOOLS PHYSICAL DATA DISCOVERY FAQ SITE MAP
JPL Small-Body Database Browser
Search: [ help ]  
(2012 MM11)
Classification: Apollo [NEO, PHA]          SPK-ID: 3605960
Ephemeris | Orbit Diagram | Orbital Elements | Physical Parameters | Close-Approach Data ]

[ hide orbit diagram ]
Orbit Diagram
Note: Make sure you have Java enabled on your browser to see the applet. This applet is provided as a 3D orbit visualization tool. The applet was implemented using 2-body methods, and hence should not be used for determining accurate long-term trajectories (over several years or decades) or planetary encounter circumstances. For accurate long-term ephemerides, please instead use our Horizons system.
Orbit Viewer

Additional Notes: the orbits shown in the applet are color coded. The planets are white lines, and the asteroid/comet is a blue line. The bright white line indicates the portion of the orbit that is above the ecliptic plane, and the darker portion is below the ecliptic plane. Likewise for the asteroid/comet orbit, the light blue indicates the portion above the ecliptic plane, and the dark blue the portion below the ecliptic plane.

Orbit Viewer applet originally written and kindly provided by Osamu Ajiki (AstroArts), and further modified by Ron Baalke (JPL).


Orbital Elements at Epoch 2456400.5 (2013-Apr-18.0) TDB
Reference: JPL 37 (heliocentric ecliptic J2000)
 Element Value Uncertainty (1-sigma)   Units 
e .6490899969328701 5.0626e-07  
a 2.110310935474864 2.532e-06 AU
q .7405292168400823 2.0892e-07 AU
i 3.157891853635222 1.1875e-05 deg
node 246.2167212747256 0.00022081 deg
peri 123.29940701379 0.00022295 deg
M 73.41329751481719 0.00012771 deg
tp 2456172.155617490085
(2012-Sep-01.65561749)
1.4244e-05 JED
period 1119.742342141463
3.07
0.0020153
5.518e-06
d
yr
n .3215025336199345 5.7863e-07 deg/d
Q 3.480092654109646 4.1756e-06 AU
  Orbit Determination Parameters
   # obs. used (total)      426  
   # delay obs. used      2  
   # Doppler obs. used      1  
   data-arc span      224 days  
   first obs. used      2012-06-24  
   last obs. used      2013-02-03  
   planetary ephem.      DE405  
   SB-pert. ephem.      SB405-CPV-2  
   condition code      2  
   fit RMS      .31196  
   data source      ORB  
   producer      Otto Matic  
   solution date      2013-Apr-29 12:16:12  

Additional Information
 Earth MOID = .0108385 AU 
 T_jup = 3.433 
[ show covariance matrix ]

Ephemeris | Orbit Diagram | Orbital Elements | Physical Parameters | Close-Approach Data ]

Physical Parameter Table
Parameter Symbol Value Units Sigma Reference Notes
absolute magnitude H 20.297 mag .5083 29 autocmod 2.5b

[ show close-approach data ]
Ephemeris | Orbit Diagram | Orbital Elements | Physical Parameters | Close-Approach Data ]
ABOUT SSD CREDITS/AWARDS PRIVACY/COPYRIGHT GLOSSARY LINKS
FirstGov 2013-May-20 07:25 UT
(server date/time)  
NASA Home Page
Site Manager:   Donald K. Yeomans
Webmaster  Alan B. Chamberlin